KD0SBN-3 Weather Reports


time (UTC)temp
C
wind
direction
speed
KPH
gust
KPH
rain 1hr
cm
rain 24hr
cm
rain mn
cm
humidity
%
barometer
mb
20260505231030 3 310 1.6 1.6 0.00 0.08 0.08 96 1016.6
20260505230527 3 319 0.0 0.0 0.00 0.08 0.08 96 1016.9
20260505230024 3 359 3.2 3.2 0.00 0.08 0.08 96 1016.8
20260505225521 2 110 0.0 0.0 0.00 0.08 0.08 96 1016.9
20260505225017 2 117 4.8 6.4 0.00 0.08 0.08 96 1016.8
20260505224514 3 289 0.0 1.6 0.00 0.08 0.08 95 1017.0
20260505224011 3 332 1.6 1.6 0.00 0.08 0.08 95 1017.0
20260505223508 3 313 0.0 1.6 0.00 0.08 0.08 95 1016.9
20260505223004 3 280 0.0 0.0 0.00 0.08 0.08 95 1016.9
20260505222501 3 208 1.6 1.6 0.00 0.08 0.08 95 1017.3
20260505221956 3 303 0.0 0.0 0.00 0.08 0.08 95 1017.4
20260505221454 3 330 3.2 3.2 0.00 0.08 0.08 95 1017.3
20260505220951 3 263 0.0 0.0 0.00 0.08 0.08 95 1017.3
20260505220448 3 283 0.0 0.0 0.18 0.08 0.08 95 1017.5
20260505215945 3 111 6.4 6.4 0.18 0.08 0.08 94 1017.4
20260505215443 3 219 1.6 1.6 0.00 0.05 0.05 94 1017.4
20260505214941 3 187 1.6 1.6 0.00 0.05 0.05 94 1017.5
20260505214438 3 151 1.6 1.6 0.00 0.05 0.05 93 1017.8
20260505213935 3 152 1.6 3.2 0.00 0.05 0.05 93 1017.7
20260505213433 3 126 3.2 3.2 0.00 0.05 0.05 93 1017.8
20260505212929 2 94 0.0 0.0 0.00 0.05 0.05 94 1017.9
20260505212426 3 267 0.0 0.0 0.00 0.05 0.05 94 1018.2
20260505211922 3 213 0.0 0.0 0.00 0.05 0.05 94 1017.9
20260505211420 3 339 0.0 0.0 0.13 0.05 0.05 94 1018.2
20260505210916 3 83 1.6 1.6 0.13 0.05 0.05 93 1018.3
20260505210423 3 127 3.2 3.2 0.00 0.03 0.03 92 1018.2
20260505205910 3 14 0.0 1.6 0.18 0.03 0.03 92 1018.5
20260505205409 3 65 1.6 1.6 0.18 0.03 0.03 91 1018.5
20260505204905 3 90 1.6 3.2 0.00 0.00 0.00 89 1018.5
20260505204403 4 102 0.0 0.0 0.00 0.00 0.00 88 1018.6
20260505203900 5 255 1.6 1.6 0.00 0.00 0.00 85 1018.6
20260505203356 5 94 4.8 6.4 0.00 0.00 0.00 80 1018.9
20260505202853 5 161 3.2 4.8 0.00 0.00 0.00 75 1018.6
20260505202349 5 227 1.6 3.2 0.00 0.00 0.00 74 1018.5
20260505201846 6 179 4.8 4.8 0.00 0.00 0.00 70 1018.6
20260505201343 7 226 3.2 6.4 0.00 0.00 0.00 63 1018.5
20260505200841 8 232 1.6 1.6 0.00 0.00 0.00 55 1018.3
20260505200338 8 137 3.2 6.4 0.00 0.00 0.00 52 1018.5
20260505195834 10 227 1.6 3.2 0.00 0.00 0.00 50 1018.2
20260505195331 9 154 3.2 11.3 0.00 0.00 0.00 50 1018.1
20260505194828 10 278 1.6 3.2 0.00 0.00 0.00 48 1018.5
20260505194325 10 71 3.2 6.4 0.00 0.00 0.00 53 1018.3
20260505193820 11 81 6.4 9.7 0.00 0.00 0.00 46 1018.3
20260505193319 10 135 8.0 14.5 0.00 0.00 0.00 47 1018.3
20260505192816 10 143 6.4 9.7 0.00 0.00 0.00 44 1018.6
20260505192315 8 25 3.2 3.2 0.00 0.00 0.00 48 1018.6
20260505191812 7 194 3.2 3.2 0.00 0.00 0.00 50 1018.9
20260505191309 7 220 1.6 3.2 0.00 0.00 0.00 49 1018.7
20260505190806 8 285 1.6 1.6 0.00 0.00 0.00 49 1018.9
20260505190302 7 251 3.2 4.8 0.00 0.00 0.00 50 1018.7
20260505185758 7 255 8.0 12.9 0.00 0.00 0.00 51 1018.3
20260505185254 7 252 6.4 6.4 0.00 0.00 0.00 53 1018.5
20260505184750 7 166 4.8 6.4 0.00 0.00 0.00 57 1018.5
20260505184248 7 191 3.2 4.8 0.00 0.00 0.00 53 1018.2
20260505183744 8 223 4.8 6.4 0.00 0.00 0.00 54 1018.7
20260505183242 7 260 3.2 6.4 0.00 0.00 0.00 54 1018.9
20260505182738 8 215 1.6 3.2 0.00 0.00 0.00 53 1018.6
20260505182235 9 215 1.6 3.2 0.00 0.00 0.00 52 1018.6
20260505181731 8 122 1.6 3.2 0.00 0.00 0.00 54 1018.9
20260505181229 8 210 3.2 3.2 0.00 0.00 0.00 55 1018.7
20260505180726 8 185 1.6 3.2 0.00 0.00 0.00 54 1019.0
20260505180222 9 245 1.6 1.6 0.00 0.00 0.00 51 1018.9
20260505175718 10 210 4.8 6.4 0.00 0.00 0.00 50 1018.7
20260505175215 8 233 1.6 1.6 0.00 0.00 0.00 54 1019.1
20260505174712 8 248 1.6 3.2 0.00 0.00 0.00 51 1019.0
20260505174209 8 207 6.4 11.3 0.00 0.00 0.00 54 1019.0
20260505173704 7 216 9.7 14.5 0.00 0.00 0.00 58 1019.5
20260505173201 7 242 0.0 1.6 0.00 0.00 0.00 59 1019.4
20260505172659 7 224 9.7 11.3 0.00 0.00 0.00 59 1019.4
20260505172156 7 205 1.6 3.2 0.00 0.00 0.00 62 1019.4
20260505171655 7 239 1.6 3.2 0.00 0.00 0.00 60 1019.5
20260505171153 7 77 4.8 6.4 0.00 0.00 0.00 63 1019.5
20260505170650 6 67 1.6 3.2 0.00 0.00 0.00 65 1019.6
20260505170146 6 291 0.0 0.0 0.00 0.00 0.00 66 1019.6
20260505165646 7 58 4.8 6.4 0.00 0.00 0.00 63 1019.6
20260505165143 7 235 3.2 3.2 0.00 0.00 0.00 61 1019.6
20260505164638 6 226 0.0 0.0 0.00 0.00 0.00 67 1020.0
20260505164136 5 111 8.0 11.3 0.00 0.00 0.00 68 1020.2
20260505163634 5 146 3.2 4.8 0.00 0.00 0.00 70 1020.0
20260505163132 6 251 1.6 1.6 0.00 0.00 0.00 68 1020.2
20260505162629 6 165 0.0 1.6 0.00 0.00 0.00 68 1020.0
20260505162126 7 245 1.6 1.6 0.00 0.00 0.00 65 1019.9
20260505161623 7 290 0.0 0.0 0.00 0.00 0.00 64 1020.2
20260505161120 7 272 0.0 0.0 0.00 0.00 0.00 65 1019.8
20260505160618 6 248 0.0 1.6 0.00 0.00 0.00 68 1019.8
20260505160115 5 112 4.8 4.8 0.00 0.00 0.00 70 1019.8
20260505153055 6 254 0.0 1.6 0.00 0.00 0.00 67 1019.9
20260505152551 6 216 1.6 3.2 0.00 0.00 0.00 67 1019.4
20260505152047 5 248 1.6 3.2 0.00 0.00 0.00 68 1019.9
20260505151542 6 135 4.8 6.4 0.00 0.00 0.00 68 1019.5
20260505151040 5 321 0.0 0.0 0.00 0.00 0.00 73 1019.8
20260505150536 5 317 0.0 1.6 0.00 0.00 0.00 72 1019.8
20260505140501 2 251 0.0 0.0 0.00 0.00 0.00 82 1020.3
20260505124915 1 291 0.0 0.0 0.00 0.00 0.00 81 1019.9
20260505124412 2 258 0.0 0.0 0.00 0.00 0.00 80 1020.0
20260505123908 2 232 1.6 3.2 0.00 0.00 0.00 81 1020.2
20260505123405 2 233 0.0 1.6 0.00 0.00 0.00 81 1020.0
20260505122900 2 232 0.0 1.6 0.00 0.00 0.00 81 1019.9
20260505122358 2 175 3.2 3.2 0.00 0.00 0.00 80 1020.0
20260505121854 2 294 0.0 0.0 0.00 0.00 0.00 80 1020.0
20260505121351 2 304 0.0 0.0 0.00 0.00 0.00 81 1020.2
20260505120847 2 310 0.0 0.0 0.00 0.00 0.00 80 1019.9
20260505120344 2 311 0.0 0.0 0.00 0.00 0.00 80 1019.9
20260505115842 2 312 0.0 1.6 0.00 0.00 0.00 80 1019.6
20260505115340 2 312 0.0 0.0 0.00 0.00 0.00 81 1020.0
20260505114838 2 312 0.0 1.6 0.00 0.00 0.00 81 1019.6
20260505114334 2 312 0.0 0.0 0.00 0.00 0.00 81 1019.8
20260505113830 2 313 0.0 0.0 0.00 0.00 0.00 82 1019.9
20260505113327 1 310 0.0 1.6 0.00 0.00 0.00 84 1019.8
20260505112823 2 310 0.0 0.0 0.00 0.00 0.00 83 1019.9
20260505112320 2 310 0.0 0.0 0.00 0.00 0.00 84 1019.6
20260505111816 1 310 1.6 1.6 0.00 0.00 0.00 84 1019.5
20260505111311 1 303 1.6 1.6 0.00 0.00 0.00 85 1019.8
20260505110807 1 308 0.0 0.0 0.00 0.00 0.00 85 1019.8
20260505110305 1 306 1.6 1.6 0.00 0.00 0.00 85 1019.9
20260505101739 2 263 0.0 0.0 0.00 0.00 0.00 83 1019.9
20260505101235 2 264 0.0 0.0 0.00 0.00 0.00 84 1019.9
20260505100732 2 264 0.0 0.0 0.00 0.00 0.00 84 1019.8
20260505100229 2 264 0.0 0.0 0.00 0.00 0.00 84 1019.9
20260505095724 2 264 0.0 0.0 0.00 0.00 0.00 83 1020.0
20260505095222 2 264 0.0 0.0 0.00 0.00 0.00 82 1020.3
20260505094717 2 264 0.0 0.0 0.00 0.00 0.00 81 1020.3
20260505094214 2 264 0.0 1.6 0.00 0.00 0.00 81 1020.6
20260505093710 2 264 0.0 1.6 0.00 0.00 0.00 80 1020.3
20260505093208 2 264 0.0 1.6 0.00 0.00 0.00 80 1020.3
20260505092704 2 277 1.6 1.6 0.00 0.00 0.00 80 1020.4
20260505092203 2 282 0.0 0.0 0.00 0.00 0.00 81 1020.3
20260505091700 2 282 0.0 0.0 0.00 0.00 0.00 81 1020.6
20260505091158 2 289 0.0 0.0 0.00 0.00 0.00 81 1020.9
20260505090655 2 288 0.0 0.0 0.00 0.00 0.00 80 1020.6
20260505090154 2 304 0.0 0.0 0.00 0.00 0.00 80 1020.8
20260505085650 3 314 0.0 0.0 0.00 0.00 0.00 79 1020.8
20260505085149 3 51 0.0 0.0 0.00 0.00 0.00 79 1020.7
20260505084646 3 51 0.0 0.0 0.00 0.00 0.00 79 1020.9
20260505084145 3 51 0.0 0.0 0.00 0.00 0.00 79 1020.8
20260505083642 3 0 1.6 3.2 0.00 0.00 0.00 79 1020.9
20260505083138 3 251 0.0 1.6 0.00 0.00 0.00 78 1021.1
20260505082634 3 263 3.2 3.2 0.00 0.00 0.00 79 1021.5
20260505082131 3 300 0.0 0.0 0.00 0.00 0.00 78 1021.1
20260505081627 3 315 0.0 0.0 0.00 0.00 0.00 77 1021.1
20260505081125 3 326 3.2 4.8 0.00 0.00 0.00 77 1020.8
20260505080621 3 302 0.0 0.0 0.00 0.00 0.00 77 1021.2
20260505080117 3 32 0.0 1.6 0.00 0.00 0.00 77 1021.2
20260505075614 3 326 1.6 1.6 0.00 0.00 0.00 77 1021.1
20260505075110 3 251 1.6 3.2 0.00 0.00 0.00 77 1021.2
20260505074607 3 281 0.0 0.0 0.00 0.00 0.00 76 1021.3
20260505074104 3 299 0.0 0.0 0.00 0.00 0.00 75 1021.3
20260505073602 3 250 1.6 1.6 0.00 0.00 0.00 74 1021.5
20260505073100 3 8 1.6 1.6 0.00 0.00 0.00 74 1021.7
20260505072555 3 344 1.6 1.6 0.00 0.00 0.00 73 1021.1
20260505072052 4 323 1.6 1.6 0.00 0.00 0.00 72 1021.2
20260505071548 4 342 0.0 1.6 0.00 0.00 0.00 72 1021.2
20260505071046 4 49 1.6 3.2 0.00 0.00 0.00 72 1021.1
20260505070543 4 19 1.6 1.6 0.00 0.00 0.00 72 1021.1
20260505070039 4 14 3.2 4.8 0.00 0.00 0.00 72 1021.1
20260505065535 4 14 3.2 4.8 0.00 0.00 0.00 72 1021.1
20260505065032 4 348 3.2 4.8 0.00 0.00 0.00 72 1020.9
20260505064528 4 69 6.4 12.9 0.00 0.00 0.00 72 1020.9
20260505064027 4 65 3.2 6.4 0.00 0.00 0.00 71 1020.9
20260505063524 4 32 1.6 3.2 0.00 0.00 0.00 70 1021.2
20260505063020 4 56 6.4 11.3 0.00 0.00 0.00 69 1020.8
20260505062517 5 65 3.2 6.4 0.00 0.00 0.00 66 1020.9
20260505062014 5 50 3.2 4.8 0.00 0.00 0.00 60 1020.9
20260505061512 5 314 1.6 1.6 0.00 0.00 0.00 58 1020.7
20260505061009 5 302 0.0 0.0 0.00 0.00 0.00 57 1020.9
20260505060506 6 351 1.6 3.2 0.00 0.00 0.00 56 1021.1
20260505060002 6 29 1.6 3.2 0.00 0.00 0.00 49 1020.8
20260505055458 7 264 0.0 0.0 0.00 0.00 0.00 41 1020.8
20260505054955 8 141 3.2 3.2 0.00 0.00 0.00 39 1020.8
20260505054453 8 261 1.6 1.6 0.00 0.00 0.00 30 1020.6
20260505053950 8 329 1.6 1.6 0.00 0.00 0.00 30 1020.6
20260505053447 9 303 1.6 1.6 0.00 0.00 0.00 30 1020.8
20260505052944 9 262 3.2 3.2 0.00 0.00 0.00 30 1020.6
20260505052441 9 321 3.2 4.8 0.00 0.00 0.00 29 1020.8
20260505051938 9 293 4.8 4.8 0.00 0.00 0.00 29 1020.9
20260505051435 8 291 1.6 3.2 0.00 0.00 0.00 30 1021.1
20260505050933 8 284 0.0 0.0 0.00 0.00 0.00 30 1021.2
20260505050431 8 271 0.0 1.6 0.00 0.00 0.00 30 1021.2
20260505041359 10 302 4.8 9.7 0.00 0.00 0.00 26 1021.2
20260505040856 10 41 6.4 9.7 0.00 0.00 0.00 27 1021.1
20260505040354 10 258 1.6 1.6 0.00 0.00 0.00 27 1020.9
20260505035850 10 316 3.2 4.8 0.00 0.00 0.00 27 1020.8
20260505035345 10 3 4.8 6.4 0.00 0.00 0.00 27 1020.8
20260505034843 10 23 4.8 6.4 0.00 0.00 0.00 28 1020.6
20260505034340 10 355 8.0 11.3 0.00 0.00 0.00 28 1020.2
20260505033837 10 300 4.8 6.4 0.00 0.00 0.00 27 1020.3
20260505033334 10 320 4.8 4.8 0.00 0.00 0.00 27 1020.4
20260505032832 10 296 4.8 6.4 0.00 0.00 0.00 27 1020.4
20260505032328 9 330 4.8 4.8 0.00 0.00 0.00 27 1020.7
20260505031825 9 313 1.6 1.6 0.00 0.00 0.00 26 1020.8
20260505031321 10 348 3.2 4.8 0.00 0.00 0.00 26 1020.8
20260505030819 10 356 4.8 6.4 0.00 0.00 0.00 25 1020.7
20260505030315 10 2 4.8 6.4 0.00 0.00 0.00 25 1020.4
20260505025810 10 336 3.2 4.8 0.00 0.00 0.00 25 1020.2
20260505025308 10 339 1.6 3.2 0.00 0.00 0.00 25 1020.2
20260505024807 10 303 1.6 3.2 0.00 0.00 0.00 25 1020.0
20260505024304 10 296 1.6 3.2 0.00 0.00 0.00 24 1020.0
20260505023801 10 288 12.9 16.1 0.00 0.00 0.00 24 1020.3
20260505023258 10 299 1.6 3.2 0.00 0.00 0.00 24 1020.0
20260505022755 10 319 3.2 3.2 0.00 0.00 0.00 23 1019.6
20260505022252 10 33 6.4 9.7 0.00 0.00 0.00 23 1019.8
20260505021749 10 305 1.6 1.6 0.00 0.00 0.00 23 1019.2
20260505021246 10 333 1.6 3.2 0.00 0.00 0.00 23 1019.2
20260505020742 10 268 8.0 14.5 0.00 0.00 0.00 22 1019.2
20260505020237 10 321 14.5 20.9 0.00 0.00 0.00 22 1019.2
20260505015734 11 306 8.0 11.3 0.00 0.00 0.00 22 1019.1
20260505015231 11 295 3.2 4.8 0.00 0.00 0.00 23 1019.1
20260505014728 11 302 4.8 6.4 0.00 0.00 0.00 22 1019.2
20260505014226 11 328 3.2 4.8 0.00 0.00 0.00 23 1019.1
20260505013722 11 308 4.8 6.4 0.00 0.00 0.00 22 1018.9
20260505013219 11 332 4.8 9.7 0.00 0.00 0.00 22 1018.9
20260505012718 11 305 3.2 4.8 0.00 0.00 0.00 22 1018.6
20260505012214 11 293 4.8 4.8 0.00 0.00 0.00 22 1018.7
20260505011710 11 296 3.2 6.4 0.00 0.00 0.00 22 1018.7
20260505011208 11 280 3.2 3.2 0.00 0.00 0.00 22 1018.3
20260505010703 11 294 1.6 3.2 0.00 0.00 0.00 22 1018.6
20260505010200 11 305 3.2 4.8 0.00 0.00 0.00 22 1018.9
20260505005656 12 293 12.9 17.7 0.00 0.00 0.00 21 1018.9
20260505005153 12 259 16.1 27.4 0.00 0.00 0.00 22 1018.7
20260505004650 12 249 8.0 9.7 0.00 0.00 0.00 22 1018.9
20260505004147 12 303 4.8 4.8 0.00 0.00 0.00 22 1018.9
20260505003644 12 265 17.7 22.5 0.00 0.00 0.00 22 1019.1
20260505003142 12 20 14.5 17.7 0.00 0.00 0.00 22 1019.1
20260505002637 12 271 17.7 27.4 0.00 0.00 0.00 22 1018.9
20260505002136 12 260 6.4 9.7 0.00 0.00 0.00 23 1018.7
20260505001632 12 271 17.7 25.7 0.00 0.00 0.00 22 1018.9
20260505001130 12 253 9.7 14.5 0.00 0.00 0.00 23 1018.9
20260505000627 12 261 11.3 14.5 0.00 0.00 0.00 23 1018.9
20260505000125 13 283 14.5 20.9 0.00 0.00 0.00 23 1019.1
20260504235621 13 244 4.8 6.4 0.00 0.00 0.00 23 1018.7
20260504235118 13 236 9.7 11.3 0.00 0.00 0.00 24 1019.0
20260504234615 13 110 4.8 9.7 0.00 0.00 0.00 24 1019.0
20260504234112 13 272 3.2 4.8 0.00 0.00 0.00 24 1019.0
20260504233608 13 277 6.4 6.4 0.00 0.00 0.00 24 1019.0
20260504233104 13 321 1.6 4.8 0.00 0.00 0.00 25 1018.9
20260504232601 13 264 9.7 11.3 0.00 0.00 0.00 25 1019.2
20260504232059 13 311 4.8 6.4 0.00 0.00 0.00 25 1019.0
20260504231555 13 246 12.9 17.7 0.00 0.00 0.00 25 1018.7